Weather History for Lihue, HI

Change the Weather History Date:

Friday, April 19, 2013

  Actual Average Record
Temperature  
Mean Temperature 74 °F 74 °F  
Max Temperature 78 °F 79 °F 85 °F (1978)
Min Temperature 69 °F 69 °F 59 °F (1966)
Degree Days  
Heating Degree Days 0 0  
Month to date heating degree days 0 0  
Since 1 July heating degree days 0 0  
Cooling Degree Days 9 9  
Month to date cooling degree days 148 170  
Year to date cooling degree days 688 804  
Growing Degree Days 23 (Base 50)    
Moisture  
Dew Point 69 °F    
Average Humidity 84    
Maximum Humidity 93    
Minimum Humidity 74    
Precipitation  
Precipitation 0.03 in 0.06 in 2.00 in (1977)
Month to date precipitation 1.59 1.58  
Year to date precipitation 12.76 13.10  
Snow  
Snow 0.00 in - - ()
Month to date snowfall 0.0  
Since 1 July snowfall 0.0  
Snow Depth 0.00 in    
Sea Level Pressure  
Sea Level Pressure 30.11 in    
Wind  
Wind Speed 14 mph (ENE)    
Max Wind Speed 22 mph    
Max Gust Speed 26 mph    
Visibility 9 miles    
Events Rain    
T = Trace of Precipitation, MM = Missing Value Source: NWS Daily Summary

Daily Weather History Graph

Daily Weather History Graph

Search for Another Location

Airport:

Trip Planner

Search our weather history database for the weather conditions in past years. The results will help you decide how hot, cold, wet, or windy it might be!

Date:

Astronomy

Apr. 19, 2013 Rise Set
Actual Time 6:14 AM HST 6:58 PM HST
Civil Twilight 5:51 AM HST 7:21 PM HST
Nautical Twilight 5:24 AM HST 7:48 PM HST
Astronomical Twilight 4:56 AM HST 8:16 PM HST
Moon 1:36 PM HST (4/19) 1:52 AM HST (4/19)
Length of Visible Light 13h 30m
Length of Day
12h 44m
Waxing Gibbous, 64% of the Moon is Illuminated
Apr 19
Waxing Gibbous
Apr 25
Full
May 2
Last Quarter
May 9
New
May 17
First Quarter

Hourly Weather History & Observations

Time (HST) Temp. Dew Point Humidity Pressure Visibility Wind Dir Wind Speed Gust Speed Precip Events Conditions
12:53 AM 73.2 °F 68.0 °F 84% 30.15 in 10.0 mi ENE 15.0 mph - N/A   Overcast
1:53 AM 73.0 °F 68.0 °F 84% 30.13 in 10.0 mi ENE 15.0 mph - N/A   Overcast
2:45 AM 71.6 °F 66.2 °F 83% 30.12 in 10.0 mi ENE 13.8 mph - N/A   Overcast
2:53 AM 72.0 °F 66.9 °F 84% 30.11 in 10.0 mi ENE 11.5 mph - N/A   Overcast
3:31 AM 73.4 °F 66.2 °F 78% 30.10 in 10.0 mi ENE 15.0 mph - N/A   Mostly Cloudy
3:53 AM 72.0 °F 66.0 °F 81% 30.09 in 10.0 mi ENE 13.8 mph - N/A   Partly Cloudy
4:21 AM 71.6 °F 66.2 °F 83% 30.10 in 10.0 mi ENE 15.0 mph - N/A   Mostly Cloudy
4:46 AM 71.6 °F 66.2 °F 83% 30.10 in 10.0 mi ENE 13.8 mph - N/A   Scattered Clouds
4:53 AM 72.0 °F 66.9 °F 84% 30.09 in 10.0 mi ENE 11.5 mph - N/A   Partly Cloudy
5:51 AM 71.6 °F 66.2 °F 83% 30.11 in 10.0 mi NE 13.8 mph - N/A   Mostly Cloudy
5:53 AM 72.0 °F 66.9 °F 84% 30.11 in 10.0 mi NE 11.5 mph - N/A   Mostly Cloudy
6:53 AM 72.0 °F 66.9 °F 84% 30.12 in 10.0 mi NE 13.8 mph - N/A   Mostly Cloudy
7:34 AM 73.4 °F 68.0 °F 83% 30.14 in 10.0 mi NE 10.4 mph - N/A   Partly Cloudy
7:53 AM 73.9 °F 68.0 °F 82% 30.14 in 10.0 mi ENE 11.5 mph - N/A   Partly Cloudy
8:15 AM 75.2 °F 69.8 °F 83% 30.15 in 10.0 mi ENE 16.1 mph - N/A   Mostly Cloudy
8:35 AM 75.2 °F 69.8 °F 83% 30.15 in 10.0 mi NE 15.0 mph - N/A   Scattered Clouds
8:53 AM 75.9 °F 69.1 °F 79% 30.15 in 10.0 mi NE 12.7 mph - N/A   Scattered Clouds
9:20 AM 73.4 °F 68.0 °F 83% 30.16 in 10.0 mi NE 12.7 mph - N/A   Overcast
9:53 AM 75.9 °F 69.1 °F 79% 30.16 in 10.0 mi ENE 13.8 mph - 0.00 in   Mostly Cloudy
10:03 AM 77.0 °F 69.8 °F 78% 30.16 in 10.0 mi ENE 13.8 mph - N/A   Mostly Cloudy
10:11 AM 75.2 °F 69.8 °F 83% 30.16 in 10.0 mi ENE 12.7 mph - N/A   Mostly Cloudy
10:53 AM 75.9 °F 66.9 °F 74% 30.16 in 10.0 mi ENE 17.3 mph - N/A   Overcast
11:23 AM 71.6 °F 68.0 °F 88% 30.16 in 6.0 mi East 20.7 mph - 0.00 in Rain Light Rain
11:53 AM 73.0 °F 70.0 °F 90% 30.14 in 10.0 mi NE 12.7 mph - 0.00 in   Overcast
12:28 PM 69.8 °F 69.8 °F 100% 30.14 in 3.0 mi ENE 11.5 mph - 0.01 in Rain Light Rain
12:36 PM 69.8 °F 69.8 °F 100% 30.13 in 2.0 mi NE 11.5 mph - 0.02 in Rain Rain
12:53 PM 71.1 °F 70.0 °F 96% 30.12 in 5.0 mi NNE 10.4 mph - 0.02 in   Overcast
1:05 PM 71.6 °F 69.8 °F 94% 30.12 in 3.0 mi ENE 16.1 mph - 0.00 in Rain Rain
1:14 PM 71.6 °F 69.8 °F 94% 30.11 in 7.0 mi ENE 13.8 mph - 0.01 in Rain Light Rain
1:53 PM 73.4 °F 70.0 °F 89% 30.10 in 10.0 mi ENE 15.0 mph - 0.01 in   Overcast
2:35 PM 71.6 °F 69.8 °F 94% 30.08 in 10.0 mi ENE 13.8 mph - N/A   Overcast
2:53 PM 71.6 °F 70.0 °F 95% 30.07 in 10.0 mi ENE 13.8 mph - N/A   Overcast
3:53 PM 73.4 °F 70.0 °F 89% 30.06 in 10.0 mi ENE 11.5 mph - N/A   Overcast
4:17 PM 73.4 °F 69.8 °F 88% 30.07 in 10.0 mi East 16.1 mph - 0.00 in   Overcast
4:53 PM 73.4 °F 69.1 °F 86% 30.06 in 10.0 mi East 15.0 mph - 0.00 in   Overcast
5:12 PM 73.4 °F 69.8 °F 88% 30.07 in 10.0 mi ENE 15.0 mph - N/A   Mostly Cloudy
5:31 PM 73.4 °F 69.8 °F 88% 30.07 in 10.0 mi ENE 17.3 mph - N/A   Overcast
5:53 PM 73.4 °F 69.8 °F 88% 30.08 in 10.0 mi NE 16.1 mph - N/A   Overcast
6:12 PM - - N/A% 30.09 in 10.0 mi NE 15.0 mph - N/A   Overcast
6:28 PM 71.6 °F 68.0 °F 88% 30.09 in 10.0 mi NE 11.5 mph - N/A   Overcast
6:45 PM 71.6 °F 68.0 °F 88% 30.09 in 3.0 mi NNE 15.0 mph 18.4 mph 0.00 in Rain Rain
6:51 PM 71.6 °F 68.0 °F 88% 30.09 in 2.5 mi NE 8.1 mph 18.4 mph 0.02 in Rain Heavy Rain
6:53 PM 71.6 °F 68.0 °F 88% 30.09 in 3.0 mi ENE 6.9 mph 18.4 mph 0.03 in Rain Heavy Rain
7:53 PM - - N/A% 30.09 in 10.0 mi East 19.6 mph 27.6 mph 0.01 in   Overcast
8:02 PM - - N/A% 30.09 in 10.0 mi East 19.6 mph 25.3 mph N/A   Overcast
8:16 PM - - N/A% 30.09 in 10.0 mi East 20.7 mph - N/A   Mostly Cloudy
8:45 PM - - N/A% 30.11 in 10.0 mi East 17.3 mph 25.3 mph N/A   Overcast
8:53 PM - - N/A% 30.11 in 10.0 mi East 18.4 mph 23.0 mph N/A   Overcast
9:10 PM - - N/A% 30.11 in 10.0 mi East 17.3 mph - N/A   Overcast
9:32 PM - - N/A% 30.12 in 10.0 mi East 17.3 mph 24.2 mph N/A   Overcast
9:53 PM - - N/A% 30.12 in 10.0 mi East 15.0 mph - N/A   Overcast
10:03 PM - - N/A% 30.12 in 10.0 mi East 18.4 mph - N/A   Overcast
10:53 PM - - N/A% 30.12 in 10.0 mi East 15.0 mph - N/A   Mostly Cloudy
11:53 PM 73.4 °F 69.8 °F 88% 30.11 in 10.0 mi East 12.7 mph - N/A   Overcast